Date,TemperatureHighF,TemperatureAvgF,TemperatureLowF,DewpointHighF,DewpointAvgF,DewpointLowF,HumidityHigh,HumidityAvg,HumidityLow,PressureMaxIn,PressureMinIn,WindSpeedMaxMPH,WindSpeedAvgMPH,GustSpeedMaxMPH,PrecipitationSumIn
2013-4-1,44,36,19,21,18,12,74,48,37,29.60,29.57,8,2,8,0.00
2013-4-2,48,41,22,23,20,16,79,45,35,29.68,29.65,8,1,8,0.00
2013-4-3,22,21,20,17,16,14,80,79,78,29.74,29.73,0,0,0,0.00
2013-4-4,60,43,32,39,30,24,75,62,43,29.51,29.40,8,1,8,0.00
2013-4-5,50,35,26,31,27,20,87,74,44,29.58,29.25,15,3,15,0.05
2013-4-6,61,45,35,47,36,28,83,71,54,29.24,28.85,14,2,14,0.10
2013-4-7,52,42,34,41,35,30,87,76,61,29.31,29.11,9,0,9,0.18
2013-4-8,59,45,40,47,40,36,89,83,63,29.37,29.04,7,0,7,0.37
2013-4-9,41,38,33,36,33,29,88,84,74,29.46,29.33,10,3,10,0.69
2013-4-10,34,32,31,29,28,28,88,86,82,29.51,29.23,8,2,8,0.08
2013-4-12,43,36,30,32,28,26,85,74,63,29.20,29.07,10,2,10,0.00
2013-4-13,30,30,29,26,26,25,86,85,81,29.24,29.20,6,1,6,0.00
2013-4-14,33,33,32,29,29,28,86,86,85,29.06,29.01,0,0,0,0.00
2013-4-17,39,37,35,33,30,28,85,77,74,29.59,29.38,7,4,7,0.04
2013-4-19,31,31,31,28,28,27,89,88,87,28.95,28.86,0,0,0,0.00
2013-4-21,50,40,33,45,35,27,88,82,68,29.65,29.39,12,3,12,0.02
2013-4-22,41,37,33,37,34,30,87,86,85,29.51,29.43,3,0,6,0.00
2013-4-23,55,40,29,38,27,21,82,60,48,29.51,29.42,7,1,9,0.00
2013-4-24,64,40,23,37,28,17,87,67,37,29.44,29.27,17,3,17,0.00
2013-4-25,56,43,32,37,31,26,83,64,43,29.58,29.35,11,4,11,0.00
2013-4-26,76,58,43,51,41,32,72,56,40,29.50,29.35,14,3,14,0.00
2013-4-27,86,62,39,56,45,33,88,58,34,29.51,29.28,12,2,12,0.00
2013-4-28,82,65,47,54,49,41,80,59,37,29.29,29.03,20,6,20,0.00
2013-4-29,79,60,48,54,48,43,86,69,40,29.18,28.93,8,1,8,0.00
2013-4-30,78,63,56,59,48,35,83,60,37,29.33,28.82,12,3,12,0.00